FW2885 Weather Reports


time (UTC)temp
F
wind
direction
speed
knots
gust
knots
rain 1hr
in
rain 24hr
in
rain mn
in
humidity
%
barometer
mb
20260505074559 48 335 3.5 9.6 0.00 0.01 0.00 32 1002.1
20260505073104 49 360 5.2 9.6 0.00 0.01 0.00 32 1003.5
20260505071555 49 308 8.7 13.0 0.00 0.01 0.00 30 1002.9
20260505070053 49 346 7.0 17.4 0.00 0.01 0.00 30 1002.8
20260505064551 50 360 8.7 13.0 0.00 0.01 0.00 31 1002.9
20260505063049 50 5 6.1 15.6 0.00 0.01 0.00 32 1002.5
20260505061549 50 350 10.4 15.6 0.00 0.01 0.00 32 1002.7
20260505060045 51 314 9.6 17.4 0.00 0.01 0.00 31 1002.3
20260505054546 51 5 9.6 18.2 0.00 0.01 0.00 30 1002.2
20260505053038 52 5 7.0 13.9 0.00 0.01 0.00 30 1002.4
20260505051537 52 355 7.8 16.5 0.00 0.01 0.00 31 1002.2
20260505041531 53 329 13.0 26.1 0.00 0.01 0.01 30 1000.2
20260505040031 54 344 14.8 23.5 0.00 0.01 0.01 29 1000.5
20260505034530 54 360 17.4 23.5 0.01 0.01 0.01 30 1000.6
20260505033036 55 318 15.6 23.5 0.01 0.01 0.01 31 1000.2
20260505031530 56 355 15.6 26.1 0.01 0.01 0.01 30 1000.0
20260505030028 57 360 14.8 24.3 0.01 0.01 0.01 27 999.9
20260505024543 58 322 10.4 20.9 0.00 0.00 0.00 27 1000.0
20260505023036 58 336 6.1 10.4 0.00 0.00 0.00 25 999.9
20260505021526 58 15 8.7 17.4 0.00 0.00 0.00 24 999.0
20260505020025 57 346 7.8 18.2 0.00 0.00 0.00 24 999.0
20260505014534 58 5 8.7 15.6 0.00 0.00 0.00 23 999.0
20260505013024 59 320 9.6 21.7 0.00 0.00 0.00 23 998.3
20260505011524 60 355 11.3 20.0 0.00 0.00 0.00 23 998.1
20260505010023 62 319 13.0 18.2 0.00 0.00 0.00 21 997.7
20260505004521 63 329 11.3 18.2 0.00 0.00 0.00 20 997.5
20260505003021 64 344 12.2 20.0 0.00 0.00 0.00 19 997.4
20260505001521 65 321 15.6 24.3 0.00 0.00 0.00 17 997.3
20260505000021 67 360 13.9 21.7 0.00 0.00 0.00 19 996.9
20260504234519 68 360 12.2 20.9 0.00 0.00 0.00 20 996.8
20260504233018 69 338 12.2 22.6 0.00 0.00 0.00 18 996.5
20260504231518 70 350 14.8 20.0 0.00 0.00 0.00 16 996.4
20260504230017 71 350 15.6 25.2 0.00 0.00 0.00 17 996.2
20260504224516 72 346 13.0 23.5 0.00 0.00 0.00 16 995.9
20260504223015 74 319 7.8 19.1 0.00 0.00 0.00 16 995.7
20260504221514 74 11 9.6 20.0 0.00 0.00 0.00 16 995.5
20260504220014 75 309 13.0 21.7 0.00 0.00 0.00 16 995.3
20260504214512 75 360 17.4 22.6 0.00 0.00 0.00 15 995.6
20260504213018 77 340 9.6 20.9 0.00 0.00 0.00 16 995.0
20260504211516 77 5 9.6 18.2 0.00 0.00 0.00 17 994.7
20260504210016 77 5 12.2 19.1 0.00 0.00 0.00 19 994.5
20260504204521 78 301 7.8 16.5 0.00 0.00 0.00 20 994.3
20260504203010 78 294 9.6 16.5 0.00 0.00 0.00 19 994.5
20260504201509 79 257 13.9 21.7 0.00 0.00 0.00 15 994.4
20260504200008 79 280 15.6 20.0 0.00 0.00 0.00 16 994.4
20260504194507 80 256 14.8 24.3 0.00 0.00 0.00 15 994.4
20260504193004 80 261 15.6 23.5 0.00 0.00 0.00 15 994.5
20260504191502 80 290 15.6 23.5 0.00 0.00 0.00 17 994.5
20260504190101 78 310 14.8 25.2 0.00 0.00 0.00 18 994.6
20260504184602 78 360 11.3 22.6 0.00 0.00 0.00 20 995.0
20260504183103 79 282 14.8 24.3 0.00 0.00 0.00 19 994.8
20260504181555 78 242 17.4 23.5 0.00 0.00 0.00 19 994.8
20260504180108 77 257 13.9 22.6 0.00 0.00 0.00 19 994.9
20260504174552 78 294 15.6 23.5 0.00 0.00 0.00 17 994.9
20260504173105 77 253 16.5 21.7 0.00 0.00 0.00 19 995.0
20260504171554 77 360 16.5 26.9 0.00 0.00 0.00 18 995.1
20260504081520 45 236 0.0 0.0 0.00 0.00 0.00 48 999.3